Time,TemperatureF,DewpointF,PressureIn,WindDirection,WindDirectionDegrees,WindSpeedMPH,WindSpeedGustMPH,Humidity,HourlyPrecipIn,Conditions,Clouds,dailyrainin,SoftwareType,DateUTC
2013-04-24 00:02:00,53.6,43.7,30.17,SW,225,1.6,3.1,69,0.00,,,0.00,pywws,2013-04-23 22:02:00,
2013-04-24 00:13:00,53.1,43.5,30.17,NW,315,0.0,3.1,70,0.00,,,0.00,pywws,2013-04-23 22:13:00,
2013-04-24 00:22:00,52.9,43.4,30.18,SW,225,0.0,0.7,70,0.00,,,0.00,pywws,2013-04-23 22:22:00,
2013-04-24 00:33:00,52.9,43.4,30.18,WSW,248,1.6,3.1,70,0.00,,,0.00,pywws,2013-04-23 22:33:00,
2013-04-24 00:42:00,52.5,43.4,30.19,West,270,1.6,2.2,71,0.00,,,0.00,pywws,2013-04-23 22:42:00,
2013-04-24 00:53:00,52.3,43.2,30.19,NW,315,0.0,1.6,71,0.00,,,0.00,pywws,2013-04-23 22:53:00,
2013-04-24 01:02:00,52.2,43.0,30.19,West,270,0.0,1.6,71,0.00,,,0.00,pywws,2013-04-23 23:02:00,
2013-04-24 01:13:00,52.2,42.7,30.19,West,270,0.0,1.6,70,0.00,,,0.00,pywws,2013-04-23 23:13:00,
2013-04-24 01:22:00,52.0,42.5,30.19,West,270,0.0,1.6,70,0.00,,,0.00,pywws,2013-04-23 23:22:00,
2013-04-24 01:33:00,51.8,42.3,30.19,West,270,0.0,1.6,70,0.00,,,0.00,pywws,2013-04-23 23:33:00,
2013-04-24 01:42:00,52.2,42.3,30.19,SW,225,0.0,1.6,69,0.00,,,0.00,pywws,2013-04-23 23:42:00,
2013-04-24 01:53:00,52.2,41.9,30.19,WSW,248,0.7,2.2,68,0.00,,,0.00,pywws,2013-04-23 23:53:00,
2013-04-24 02:02:00,51.8,42.0,30.19,SW,225,0.0,0.7,69,0.00,,,0.00,pywws,2013-04-24 00:02:00,
2013-04-24 02:13:00,52.0,41.8,30.20,SW,225,0.7,1.6,68,0.00,,,0.00,pywws,2013-04-24 00:13:00,
2013-04-24 02:22:00,51.6,41.0,30.20,South,180,0.0,0.0,67,0.00,,,0.00,pywws,2013-04-24 00:22:00,
2013-04-24 02:33:00,51.1,40.9,30.20,South,180,0.0,0.0,68,0.00,,,0.00,pywws,2013-04-24 00:33:00,
2013-04-24 02:42:00,50.7,41.7,30.20,South,180,0.0,2.2,71,0.00,,,0.00,pywws,2013-04-24 00:42:00,
2013-04-24 02:53:00,50.2,41.1,30.20,South,180,0.0,0.0,71,0.00,,,0.00,pywws,2013-04-24 00:53:00,
2013-04-24 03:02:00,49.8,41.2,30.21,SW,225,0.0,1.6,72,0.00,,,0.00,pywws,2013-04-24 01:02:00,
2013-04-24 03:13:00,50.0,41.0,30.21,SW,225,0.7,3.1,71,0.00,,,0.00,pywws,2013-04-24 01:13:00,
2013-04-24 03:22:00,49.6,41.0,30.21,NW,315,0.7,2.2,72,0.00,,,0.00,pywws,2013-04-24 01:22:00,
2013-04-24 03:33:00,49.6,41.3,30.21,West,270,1.6,3.1,73,0.00,,,0.00,pywws,2013-04-24 01:33:00,
2013-04-24 03:42:00,49.3,41.0,30.22,West,270,0.7,2.2,73,0.00,,,0.00,pywws,2013-04-24 01:42:00,
2013-04-24 03:53:00,49.5,41.2,30.22,West,270,0.7,2.2,73,0.00,,,0.00,pywws,2013-04-24 01:53:00,
2013-04-24 04:02:00,50.0,41.0,30.22,NW,315,0.7,2.2,71,0.00,,,0.00,pywws,2013-04-24 02:02:00,
2013-04-24 04:22:00,50.2,40.8,30.22,NW,315,0.7,1.6,70,0.00,,,0.00,pywws,2013-04-24 02:22:00,
2013-04-24 04:33:00,50.4,41.0,30.22,West,270,0.0,1.6,70,0.00,,,0.00,pywws,2013-04-24 02:33:00,
2013-04-24 04:42:00,50.4,40.6,30.23,West,270,0.7,1.6,69,0.00,,,0.00,pywws,2013-04-24 02:42:00,
2013-04-24 04:53:00,50.5,40.8,30.23,West,270,0.7,2.2,69,0.00,,,0.00,pywws,2013-04-24 02:53:00,
2013-04-24 05:02:00,50.7,40.9,30.23,WSW,248,1.6,2.2,69,0.00,,,0.00,pywws,2013-04-24 03:02:00,
2013-04-24 05:22:00,50.5,40.8,30.23,West,270,0.7,1.6,69,0.00,,,0.00,pywws,2013-04-24 03:22:00,
2013-04-24 05:33:00,50.2,40.4,30.24,West,270,0.0,1.6,69,0.00,,,0.00,pywws,2013-04-24 03:33:00,
2013-04-24 05:42:00,49.8,40.4,30.24,West,270,0.7,2.2,70,0.00,,,0.00,pywws,2013-04-24 03:42:00,
2013-04-24 06:02:00,49.6,40.6,30.24,South,180,0.7,1.6,71,0.00,,,0.00,pywws,2013-04-24 04:02:00,
2013-04-24 06:13:00,49.8,41.2,30.24,West,270,0.7,2.2,72,0.00,,,0.00,pywws,2013-04-24 04:13:00,
2013-04-24 06:22:00,50.2,41.5,30.25,SW,225,0.0,0.7,72,0.00,,,0.00,pywws,2013-04-24 04:22:00,
2013-04-24 06:33:00,50.4,41.3,30.25,SW,225,0.7,2.2,71,0.00,,,0.00,pywws,2013-04-24 04:33:00,
2013-04-24 06:42:00,50.5,40.8,30.25,SW,225,1.6,2.2,69,0.00,,,0.00,pywws,2013-04-24 04:42:00,
2013-04-24 06:53:00,51.8,41.2,30.25,South,180,0.0,0.7,67,0.00,,,0.00,pywws,2013-04-24 04:53:00,
2013-04-24 07:02:00,52.3,41.7,30.25,South,180,0.7,1.6,67,0.00,,,0.00,pywws,2013-04-24 05:02:00,
2013-04-24 07:13:00,52.7,42.1,30.25,South,180,0.0,0.7,67,0.00,,,0.00,pywws,2013-04-24 05:13:00,
2013-04-24 07:22:00,52.0,41.4,30.26,South,180,1.6,2.2,67,0.00,,,0.00,pywws,2013-04-24 05:22:00,
2013-04-24 07:33:00,51.8,42.0,30.26,South,180,0.0,0.7,69,0.00,,,0.00,pywws,2013-04-24 05:33:00,
2013-04-24 07:42:00,52.9,42.2,30.27,South,180,0.0,1.6,67,0.00,,,0.00,pywws,2013-04-24 05:42:00,
2013-04-24 07:53:00,53.8,42.3,30.27,South,180,0.0,1.6,65,0.00,,,0.00,pywws,2013-04-24 05:53:00,
2013-04-24 08:02:00,55.0,41.8,30.27,SSW,203,2.2,3.8,61,0.00,,,0.00,pywws,2013-04-24 06:02:00,
2013-04-24 08:13:00,55.9,43.1,30.27,South,180,0.0,1.6,62,0.00,,,0.00,pywws,2013-04-24 06:13:00,
2013-04-24 08:22:00,56.1,42.9,30.28,SW,225,0.7,3.1,61,0.00,,,0.00,pywws,2013-04-24 06:22:00,
2013-04-24 08:33:00,55.6,42.8,30.28,SW,225,0.7,2.2,62,0.00,,,0.00,pywws,2013-04-24 06:33:00,
2013-04-24 08:42:00,56.3,43.4,30.28,NW,315,1.6,2.2,62,0.00,,,0.00,pywws,2013-04-24 06:42:00,
2013-04-24 08:53:00,57.7,43.9,30.28,West,270,0.7,2.2,60,0.00,,,0.00,pywws,2013-04-24 06:53:00,
2013-04-24 09:02:00,59.5,45.2,30.29,SSW,203,0.0,1.6,59,0.00,,,0.00,pywws,2013-04-24 07:02:00,
2013-04-24 09:13:00,62.1,43.7,30.28,SSW,203,1.6,3.8,51,0.00,,,0.00,pywws,2013-04-24 07:13:00,
2013-04-24 09:22:00,64.0,43.9,30.28,SE,135,1.6,3.1,48,0.00,,,0.00,pywws,2013-04-24 07:22:00,
2013-04-24 09:33:00,63.3,45.9,30.28,SE,135,1.6,3.1,53,0.00,,,0.00,pywws,2013-04-24 07:33:00,
2013-04-24 09:42:00,63.7,46.2,30.28,SE,135,1.6,2.2,53,0.00,,,0.00,pywws,2013-04-24 07:42:00,
2013-04-24 09:53:00,62.4,46.5,30.28,South,180,0.7,2.2,56,0.00,,,0.00,pywws,2013-04-24 07:53:00,
2013-04-24 10:02:00,61.9,47.4,30.28,SSE,158,1.6,3.1,59,0.00,,,0.00,pywws,2013-04-24 08:02:00,
2013-04-24 10:13:00,63.0,47.5,30.29,East,90,2.2,3.8,57,0.00,,,0.00,pywws,2013-04-24 08:13:00,
2013-04-24 10:22:00,63.5,47.0,30.29,West,270,0.7,2.2,55,0.00,,,0.00,pywws,2013-04-24 08:22:00,
2013-04-24 10:33:00,63.9,47.4,30.29,East,90,1.6,3.1,55,0.00,,,0.00,pywws,2013-04-24 08:33:00,
2013-04-24 10:42:00,63.0,47.0,30.29,SE,135,3.1,6.0,56,0.00,,,0.00,pywws,2013-04-24 08:42:00,
2013-04-24 10:53:00,63.1,47.7,30.29,SW,225,2.2,5.4,57,0.00,,,0.00,pywws,2013-04-24 08:53:00,
2013-04-24 11:02:00,63.9,47.4,30.29,South,180,1.6,3.1,55,0.00,,,0.00,pywws,2013-04-24 09:02:00,
2013-04-24 11:13:00,64.6,46.6,30.28,SE,135,3.1,7.6,52,0.00,,,0.00,pywws,2013-04-24 09:13:00,
2013-04-24 11:22:00,64.4,46.4,30.28,SE,135,3.1,6.0,52,0.00,,,0.00,pywws,2013-04-24 09:22:00,
2013-04-24 11:33:00,65.3,48.2,30.28,SSE,158,4.5,6.9,54,0.00,,,0.00,pywws,2013-04-24 09:33:00,
2013-04-24 11:42:00,65.7,48.1,30.28,South,180,3.1,7.6,53,0.00,,,0.00,pywws,2013-04-24 09:42:00,
2013-04-24 11:53:00,67.8,47.4,30.28,SE,135,4.5,9.8,48,0.00,,,0.00,pywws,2013-04-24 09:53:00,
2013-04-24 12:02:00,66.7,47.5,30.27,SW,225,2.2,5.4,50,0.00,,,0.00,pywws,2013-04-24 10:02:00,
2013-04-24 12:13:00,67.6,45.5,30.27,SW,225,6.9,10.7,45,0.00,,,0.00,pywws,2013-04-24 10:13:00,
2013-04-24 12:22:00,68.5,45.1,30.27,SW,225,3.8,6.0,43,0.00,,,0.00,pywws,2013-04-24 10:22:00,
2013-04-24 12:33:00,69.6,46.1,30.26,SW,225,0.7,3.1,43,0.00,,,0.00,pywws,2013-04-24 10:33:00,
2013-04-24 12:42:00,69.1,45.6,30.26,SW,225,3.8,5.4,43,0.00,,,0.00,pywws,2013-04-24 10:42:00,
2013-04-24 12:53:00,69.4,46.6,30.26,NW,315,2.2,5.4,44,0.00,,,0.00,pywws,2013-04-24 10:53:00,
2013-04-24 13:02:00,68.9,45.5,30.27,SSE,158,4.5,7.6,43,0.00,,,0.00,pywws,2013-04-24 11:02:00,
2013-04-24 13:13:00,70.2,45.4,30.27,SW,225,0.7,3.1,41,0.00,,,0.00,pywws,2013-04-24 11:13:00,
2013-04-24 13:22:00,70.7,44.5,30.26,SW,225,2.2,3.8,39,0.00,,,0.00,pywws,2013-04-24 11:22:00,
2013-04-24 13:33:00,70.2,44.7,30.26,SSW,203,3.1,4.5,40,0.00,,,0.00,pywws,2013-04-24 11:33:00,
2013-04-24 13:42:00,70.3,46.1,30.26,South,180,3.1,6.9,42,0.00,,,0.00,pywws,2013-04-24 11:42:00,
2013-04-24 13:53:00,70.7,46.5,30.26,NW,315,0.7,2.2,42,0.00,,,0.00,pywws,2013-04-24 11:53:00,
2013-04-24 14:02:00,71.2,44.3,30.25,SE,135,0.7,2.2,38,0.00,,,0.00,pywws,2013-04-24 12:02:00,
2013-04-24 14:13:00,71.4,45.8,30.25,South,180,0.7,2.2,40,0.00,,,0.00,pywws,2013-04-24 12:13:00,
2013-04-24 14:22:00,71.6,44.6,30.25,SE,135,4.5,6.9,38,0.00,,,0.00,pywws,2013-04-24 12:22:00,
2013-04-24 14:33:00,71.4,46.5,30.24,West,270,0.7,1.6,41,0.00,,,0.00,pywws,2013-04-24 12:33:00,
2013-04-24 14:42:00,71.4,45.8,30.24,East,90,1.6,4.5,40,0.00,,,0.00,pywws,2013-04-24 12:42:00,
2013-04-24 14:53:00,72.9,47.1,30.24,South,180,2.2,7.6,40,0.00,,,0.00,pywws,2013-04-24 12:53:00,
2013-04-24 15:02:00,72.1,44.4,30.24,SE,135,0.7,3.1,37,0.00,,,0.00,pywws,2013-04-24 13:02:00,
2013-04-24 15:13:00,72.0,44.3,30.24,NW,315,3.1,5.4,37,0.00,,,0.00,pywws,2013-04-24 13:13:00,
2013-04-24 15:22:00,72.3,45.3,30.24,SE,135,0.7,2.2,38,0.00,,,0.00,pywws,2013-04-24 13:22:00,
2013-04-24 15:33:00,73.6,45.0,30.23,West,270,6.0,9.8,36,0.00,,,0.00,pywws,2013-04-24 13:33:00,
2013-04-24 15:42:00,73.2,44.6,30.23,SSW,203,1.6,3.1,36,0.00,,,0.00,pywws,2013-04-24 13:42:00,
2013-04-24 15:53:00,74.5,44.3,30.22,SE,135,1.6,3.1,34,0.00,,,0.00,pywws,2013-04-24 13:53:00,
2013-04-24 16:02:00,73.9,43.8,30.22,West,270,3.1,6.0,34,0.00,,,0.00,pywws,2013-04-24 14:02:00,
2013-04-24 16:13:00,74.7,46.6,30.21,South,180,1.6,6.0,37,0.00,,,0.00,pywws,2013-04-24 14:13:00,
2013-04-24 16:22:00,73.2,44.6,30.21,East,90,2.2,3.1,36,0.00,,,0.00,pywws,2013-04-24 14:22:00,
2013-04-24 16:33:00,73.6,44.2,30.21,West,270,3.1,5.4,35,0.00,,,0.00,pywws,2013-04-24 14:33:00,
2013-04-24 16:42:00,74.1,46.2,30.21,West,270,2.2,3.8,37,0.00,,,0.00,pywws,2013-04-24 14:42:00,
2013-04-24 16:53:00,75.4,45.8,30.20,SW,225,1.6,3.8,35,0.00,,,0.00,pywws,2013-04-24 14:53:00,
2013-04-24 17:02:00,74.5,45.8,30.20,SSE,158,2.2,5.4,36,0.00,,,0.00,pywws,2013-04-24 15:02:00,
2013-04-24 17:13:00,73.9,45.3,30.20,East,90,1.6,5.4,36,0.00,,,0.00,pywws,2013-04-24 15:13:00,
2013-04-24 17:22:00,75.0,43.9,30.20,SW,225,3.1,7.6,33,0.00,,,0.00,pywws,2013-04-24 15:22:00,
2013-04-24 17:33:00,75.2,45.7,30.20,SW,225,1.6,4.5,35,0.00,,,0.00,pywws,2013-04-24 15:33:00,
2013-04-24 17:42:00,73.8,45.1,30.20,SW,225,2.2,3.8,36,0.00,,,0.00,pywws,2013-04-24 15:42:00,
2013-04-24 17:53:00,73.8,44.4,30.20,South,180,2.2,3.8,35,0.00,,,0.00,pywws,2013-04-24 15:53:00,
2013-04-24 18:02:00,74.1,44.7,30.19,SE,135,0.7,2.2,35,0.00,,,0.00,pywws,2013-04-24 16:02:00,
2013-04-24 18:13:00,74.3,43.3,30.19,South,180,1.6,3.8,33,0.00,,,0.00,pywws,2013-04-24 16:13:00,
2013-04-24 18:22:00,74.8,44.6,30.19,South,180,0.0,2.2,34,0.00,,,0.00,pywws,2013-04-24 16:22:00,
2013-04-24 18:33:00,73.2,44.6,30.19,WSW,248,0.0,1.6,36,0.00,,,0.00,pywws,2013-04-24 16:33:00,
2013-04-24 18:42:00,72.7,44.9,30.19,SSW,203,0.7,2.2,37,0.00,,,0.00,pywws,2013-04-24 16:42:00,
2013-04-24 18:54:00,72.5,45.4,30.19,SW,225,0.0,2.2,38,0.00,,,0.00,pywws,2013-04-24 16:54:00,
2013-04-24 19:02:00,72.5,44.7,30.18,South,180,0.7,2.2,37,0.00,,,0.00,pywws,2013-04-24 17:02:00,
2013-04-24 19:14:00,72.3,45.3,30.18,SW,225,1.6,3.1,38,0.00,,,0.00,pywws,2013-04-24 17:14:00,
2013-04-24 19:22:00,72.1,45.1,30.18,South,180,2.2,4.5,38,0.00,,,0.00,pywws,2013-04-24 17:22:00,
2013-04-24 19:33:00,71.1,45.5,30.18,South,180,1.6,3.1,40,0.00,,,0.00,pywws,2013-04-24 17:33:00,
2013-04-24 19:42:00,70.3,46.1,30.18,South,180,0.7,3.1,42,0.00,,,0.00,pywws,2013-04-24 17:42:00,
2013-04-24 19:53:00,69.1,45.6,30.18,SSW,203,0.7,2.2,43,0.00,,,0.00,pywws,2013-04-24 17:53:00,
2013-04-24 20:02:00,67.8,45.7,30.18,SE,135,0.7,1.6,45,0.00,,,0.00,pywws,2013-04-24 18:02:00,
2013-04-24 20:13:00,66.4,46.1,30.18,South,180,0.7,1.6,48,0.00,,,0.00,pywws,2013-04-24 18:13:00,
2013-04-24 20:22:00,65.3,46.2,30.19,South,180,0.7,2.2,50,0.00,,,0.00,pywws,2013-04-24 18:22:00,
2013-04-24 20:34:00,64.6,46.6,30.19,South,180,0.7,2.2,52,0.00,,,0.00,pywws,2013-04-24 18:34:00,
2013-04-24 20:42:00,64.0,46.1,30.19,SE,135,0.7,1.6,52,0.00,,,0.00,pywws,2013-04-24 18:42:00,
2013-04-24 20:53:00,63.7,46.2,30.19,SSE,158,1.6,3.1,53,0.00,,,0.00,pywws,2013-04-24 18:53:00,
2013-04-24 21:02:00,63.5,46.1,30.19,South,180,0.7,3.8,53,0.00,,,0.00,pywws,2013-04-24 19:02:00,
2013-04-24 21:14:00,63.7,45.7,30.19,South,180,2.2,4.5,52,0.00,,,0.00,pywws,2013-04-24 19:14:00,
2013-04-24 21:22:00,63.3,45.9,30.19,SW,225,2.2,3.8,53,0.00,,,0.00,pywws,2013-04-24 19:22:00,
2013-04-24 21:34:00,63.1,45.7,30.20,South,180,1.6,3.8,53,0.00,,,0.00,pywws,2013-04-24 19:34:00,
2013-04-24 21:42:00,62.8,45.4,30.20,South,180,2.2,6.0,53,0.00,,,0.00,pywws,2013-04-24 19:42:00,
2013-04-24 21:53:00,62.8,45.4,30.19,South,180,1.6,3.1,53,0.00,,,0.00,pywws,2013-04-24 19:53:00,
2013-04-24 22:02:00,62.8,44.9,30.20,SW,225,3.1,5.4,52,0.00,,,0.00,pywws,2013-04-24 20:02:00,
2013-04-24 22:14:00,62.8,44.9,30.20,SW,225,3.1,5.4,52,0.00,,,0.00,pywws,2013-04-24 20:14:00,
2013-04-24 22:22:00,62.8,44.9,30.19,South,180,3.8,7.6,52,0.00,,,0.00,pywws,2013-04-24 20:22:00,
2013-04-24 22:34:00,62.8,44.9,30.19,SW,225,3.8,6.9,52,0.00,,,0.00,pywws,2013-04-24 20:34:00,
2013-04-24 22:42:00,62.6,45.2,30.19,South,180,3.1,5.4,53,0.00,,,0.00,pywws,2013-04-24 20:42:00,
2013-04-24 22:54:00,62.4,45.6,30.20,South,180,2.2,3.8,54,0.00,,,0.00,pywws,2013-04-24 20:54:00,
2013-04-24 23:02:00,61.3,45.5,30.20,South,180,0.0,2.2,56,0.00,,,0.00,pywws,2013-04-24 21:02:00,
2013-04-24 23:13:00,60.3,45.9,30.20,South,180,0.0,1.6,59,0.00,,,0.00,pywws,2013-04-24 21:13:00,
2013-04-24 23:22:00,59.5,45.6,30.20,South,180,0.0,1.6,60,0.00,,,0.00,pywws,2013-04-24 21:22:00,
2013-04-24 23:33:00,59.5,46.1,30.20,West,270,1.6,3.1,61,0.00,,,0.00,pywws,2013-04-24 21:33:00,
2013-04-24 23:42:00,59.4,46.3,30.20,SW,225,0.7,3.8,62,0.00,,,0.00,pywws,2013-04-24 21:42:00,
2013-04-24 23:53:00,58.6,46.1,30.20,South,180,0.0,0.7,63,0.00,,,0.00,pywws,2013-04-24 21:53:00,